Location: Christianberg
(48.9086°N, 14.0209°E)
Time: 19:54:55
(UTC+00:00)

Cosmos 372 Rocket - Pass Details

Date: 20 June 2021
Orbit: 737 x 768 km, 74.1° (Epoch: 02 August)

Event Time Altitude Azimuth Distance (km) Brightness Sun altitude
Rises 01:01:18 0° 332° (NNW) 3,237 7.8 -13.2°
Reaches altitude 10° 01:03:43 10° 328° (NNW) 2,310 6.9 -13.0°
Maximum altitude 01:08:46 49° 254° (WSW) 982 4.3 -12.6°
Enters shadow 01:13:08 14° 183° (S) 2,063 5.7 -12.2°
